Weather History for Newark Heath, OH

Change the Weather History Date:

Wednesday, March 6, 2013

  Actual Average Record
Temperature  
Mean Temperature 2 °C -  
Max Temperature 4 °C 7 °C 23 °C (1973)
Min Temperature 1 °C -2 °C -12 °C (1960)
Degree Days  
Heating Degree Days 29    
Moisture  
Dew Point -1 °C    
Average Humidity 82    
Maximum Humidity 93    
Minimum Humidity 65    
Precipitation  
Precipitation 5.08 mm - - ()
Sea Level Pressure  
Sea Level Pressure 1011 hPa    
Wind  
Wind Speed 11 km/h (North)    
Max Wind Speed 16 km/h    
Max Gust Speed 27 km/h    
Visibility 11 kilometers    
Events Snow    
Averages and records for this station are not official NWS values.
T = Trace of Precipitation, MM = Missing Value Source: NWS Daily Summary

Daily Weather History Graph

Daily Weather History Graph

Search for Another Location

Airport:

Trip Planner

Search our weather history database for the weather conditions in past years. The results will help you decide how hot, cold, wet, or windy it might be!

Date:

Astronomy

Mar. 06, 2013 Rise Set
Actual Time 6:55 AM EST 6:27 PM EST
Civil Twilight 6:28 AM EST 6:54 PM EST
Nautical Twilight 5:56 AM EST 7:25 PM EST
Astronomical Twilight 5:25 AM EST 7:57 PM EST
Moon 3:03 AM EST (3/6) 1:08 PM EST (3/6)
Length of Visible Light 12h 26m
Length of Day
11h 32m
Waning Crescent, 30% of the Moon is Illuminated
Mar 6
Waning Crescent
Mar 11
New
Mar 19
First Quarter
Mar 27
Full
Apr 3
Last Quarter

Hourly Weather History & Observations

Time (EST) Temp. Windchill Dew Point Humidity Pressure Visibility Wind Dir Wind Speed Gust Speed Precip Events Conditions
12:48 AM 1.0 °C -2.4 °C 0.0 °C 93% 999.9 hPa 1.6 km NE 11.1 km/h / 3.1 m/s - 2.5 mm Snow Light Snow
12:54 AM 1.1 °C -2.6 °C 0.0 °C 92% 1000.3 hPa 1.6 km NNE 13.0 km/h / 3.6 m/s - 2.5 mm Snow Light Snow
1:51 AM 1.0 °C -2.8 °C 0.0 °C 93% 1000.2 hPa 4.0 km NNE 13.0 km/h / 3.6 m/s - 1.3 mm Snow Light Snow
1:54 AM 1.1 °C -2.6 °C 0.0 °C 92% 1000.9 hPa 4.0 km NE 13.0 km/h / 3.6 m/s - 1.3 mm Snow Light Snow
2:06 AM 1.0 °C -1.9 °C 0.0 °C 93% 1000.6 hPa 4.8 km NE 9.3 km/h / 2.6 m/s - 0.0 mm Snow Light Snow
2:47 AM 1.0 °C -3.1 °C 0.0 °C 93% 1000.6 hPa 4.0 km NNE 14.8 km/h / 4.1 m/s - 0.3 mm Snow Light Snow
2:54 AM 1.1 °C -2.2 °C 0.0 °C 92% 1001.1 hPa 4.0 km NE 11.1 km/h / 3.1 m/s - 0.3 mm Snow Light Snow
3:15 AM 1.0 °C -1.9 °C 0.0 °C 93% 1000.6 hPa 2.8 km NNE 9.3 km/h / 2.6 m/s - 0.3 mm Snow Light Snow
3:24 AM 1.0 °C -3.1 °C 0.0 °C 93% 1000.9 hPa 4.8 km NNE 14.8 km/h / 4.1 m/s 27.8 km/h / 7.7 m/s 0.3 mm Snow Light Snow
3:32 AM 1.0 °C -2.8 °C 0.0 °C 93% 1000.9 hPa 3.2 km NE 13.0 km/h / 3.6 m/s - 0.3 mm Snow Light Snow
3:41 AM 1.0 °C -2.8 °C 0.0 °C 93% 1001.2 hPa 2.8 km NE 13.0 km/h / 3.6 m/s - 0.5 mm Snow Light Snow
3:54 AM 1.1 °C -3.0 °C -0.6 °C 89% 1002.0 hPa 2.8 km NE 14.8 km/h / 4.1 m/s - 0.5 mm Snow Light Snow
4:13 AM 1.0 °C -1.9 °C 0.0 °C 93% 1001.9 hPa 3.2 km ENE 9.3 km/h / 2.6 m/s - 0.3 mm Snow Light Snow
4:31 AM 1.0 °C -3.4 °C -1.0 °C 87% 1002.3 hPa 4.8 km NE 16.7 km/h / 4.6 m/s - 0.3 mm Snow Light Snow
4:54 AM 1.1 °C -2.6 °C -0.6 °C 89% 1003.7 hPa 4.8 km NE 13.0 km/h / 3.6 m/s - 0.3 mm Snow Light Snow
5:23 AM 1.0 °C -2.4 °C -1.0 °C 87% 1003.9 hPa 4.0 km NE 11.1 km/h / 3.1 m/s - 0.3 mm Snow Light Snow
5:30 AM 1.0 °C -1.9 °C -1.0 °C 87% 1003.9 hPa 4.8 km NE 9.3 km/h / 2.6 m/s - 0.3 mm Snow Light Snow
5:54 AM 1.1 °C -2.2 °C -0.6 °C 89% 1005.6 hPa 11.3 km Variable 11.1 km/h / 3.1 m/s - 0.3 mm   Overcast
6:30 AM 1.0 °C -2.4 °C -1.0 °C 87% 1006.3 hPa 16.1 km NE 11.1 km/h / 3.1 m/s - N/A   Overcast
6:54 AM 1.1 °C -1.2 °C -0.6 °C 89% 1007.8 hPa 16.1 km Variable 7.4 km/h / 2.1 m/s - N/A   Overcast
7:10 AM 1.0 °C -3.1 °C -1.0 °C 87% 1007.7 hPa 16.1 km ENE 14.8 km/h / 4.1 m/s - N/A   Overcast
7:32 AM 1.0 °C -1.4 °C -1.0 °C 87% 1008.4 hPa 16.1 km ENE 7.4 km/h / 2.1 m/s - N/A   Overcast
7:54 AM 1.1 °C -1.8 °C -1.1 °C 85% 1010.1 hPa 16.1 km NE 9.3 km/h / 2.6 m/s - N/A   Overcast
8:54 AM 1.1 °C -1.8 °C -1.1 °C 85% 1012.1 hPa 16.1 km NE 9.3 km/h / 2.6 m/s - N/A   Mostly Cloudy
9:01 AM 1.0 °C -2.4 °C -1.0 °C 87% 1011.7 hPa 16.1 km NE 11.1 km/h / 3.1 m/s - N/A   Mostly Cloudy
9:54 AM 2.8 °C -0.6 °C -0.6 °C 79% 1013.6 hPa 16.1 km North 13.0 km/h / 3.6 m/s - N/A   Mostly Cloudy
10:17 AM 3.0 °C -0.3 °C -1.0 °C 75% 1013.4 hPa 16.1 km North 13.0 km/h / 3.6 m/s - N/A   Scattered Clouds
10:43 AM 3.0 °C 1.0 °C -1.0 °C 75% 1014.1 hPa 16.1 km NNE 7.4 km/h / 2.1 m/s - N/A   Mostly Cloudy
10:54 AM 3.3 °C 1.3 °C -0.6 °C 76% 1014.9 hPa 16.1 km Variable 7.4 km/h / 2.1 m/s - N/A   Mostly Cloudy
11:54 AM 3.3 °C 0.0 °C -1.1 °C 73% 1016.1 hPa 16.1 km North 13.0 km/h / 3.6 m/s - N/A   Overcast
12:45 PM 3.0 °C 0.0 °C -2.0 °C 70% 1016.1 hPa 16.1 km North 11.1 km/h / 3.1 m/s - N/A   Overcast
12:54 PM 3.3 °C 0.4 °C -1.1 °C 73% 1016.9 hPa 16.1 km NNW 11.1 km/h / 3.1 m/s - N/A   Overcast
1:51 PM 4.0 °C 1.7 °C -2.0 °C 65% 1016.1 hPa 16.1 km NNW 9.3 km/h / 2.6 m/s - N/A   Overcast
1:54 PM 3.9 °C 1.1 °C -1.7 °C 67% 1017.0 hPa 16.1 km North 11.1 km/h / 3.1 m/s - N/A   Overcast
2:14 PM 4.0 °C 1.7 °C -2.0 °C 65% 1016.5 hPa 16.1 km NNW 9.3 km/h / 2.6 m/s - N/A   Overcast
2:54 PM 3.9 °C 1.1 °C -1.7 °C 67% 1017.9 hPa 16.1 km NNW 11.1 km/h / 3.1 m/s - N/A   Overcast
3:29 PM 4.0 °C 1.7 °C -1.0 °C 70% 1017.8 hPa 16.1 km NNW 9.3 km/h / 2.6 m/s - N/A   Overcast
3:54 PM 3.3 °C 0.0 °C -0.6 °C 76% 1018.9 hPa 16.1 km WNW 13.0 km/h / 3.6 m/s - N/A   Overcast
4:54 PM 3.3 °C 0.0 °C -1.1 °C 73% 1019.1 hPa 16.1 km WNW 13.0 km/h / 3.6 m/s - N/A   Overcast
5:54 PM 2.8 °C -0.2 °C -1.1 °C 76% 1019.9 hPa 16.1 km WNW 11.1 km/h / 3.1 m/s - N/A   Overcast
6:54 PM 2.2 °C -0.5 °C -1.1 °C 79% 1020.8 hPa 16.1 km WNW 9.3 km/h / 2.6 m/s - N/A   Overcast
7:54 PM 2.2 °C -0.5 °C -1.1 °C 79% 1021.5 hPa 16.1 km WNW 9.3 km/h / 2.6 m/s - N/A   Overcast
8:34 PM 2.0 °C -1.2 °C -1.0 °C 81% 1020.9 hPa 16.1 km WNW 11.1 km/h / 3.1 m/s - N/A   Overcast
8:54 PM 1.7 °C -2.3 °C -1.1 °C 82% 1022.0 hPa 16.1 km WNW 14.8 km/h / 4.1 m/s - N/A   Overcast
9:43 PM 2.0 °C -1.5 °C -2.0 °C 75% 1021.2 hPa 14.5 km WNW 13.0 km/h / 3.6 m/s - N/A   Overcast
9:54 PM 1.7 °C -1.1 °C -1.7 °C 78% 1022.1 hPa 14.5 km WNW 9.3 km/h / 2.6 m/s - N/A   Overcast
10:10 PM 2.0 °C -0.7 °C -2.0 °C 75% 1021.6 hPa 14.5 km WNW 9.3 km/h / 2.6 m/s - N/A   Overcast
10:22 PM 1.0 °C -1.9 °C -2.0 °C 81% 1021.6 hPa 12.9 km WNW 9.3 km/h / 2.6 m/s - N/A   Overcast
10:54 PM 1.1 °C -2.2 °C -2.2 °C 79% 1022.4 hPa 11.3 km WNW 11.1 km/h / 3.1 m/s - N/A   Overcast
11:36 PM 1.0 °C -1.9 °C -2.0 °C 81% 1021.9 hPa 11.3 km NW 9.3 km/h / 2.6 m/s - N/A   Overcast
11:54 PM 1.1 °C -1.8 °C -2.2 °C 79% 1022.5 hPa 12.9 km NNW 9.3 km/h / 2.6 m/s - N/A   Overcast